Tracking 19908 objects as of 19-Oct-2019
HD Live streaming from Space Station
objects crossing your sky now

EUTELSAT 1-F4 (ECS 4)

Track EUTELSAT 1-F4 (ECS 4) now!
EUTELSAT 1-F4 (ECS 4) is classified as:


NORAD ID: 18351
Int'l Code: 1987-078B
Perigee: 36,188.1 km
Apogee: 36,297.6 km
Inclination: 15.4 °
Period: 1,459.1 minutes
Semi major axis: 42613 km
RCS: 3.9811 m2 (large)
Launch date: September 16, 1987
Source: European Telecommunications Satellite Organization (EUTE)
Launch site: FRENCH GUIANA (FRGUI)
aabbcc
Your satellite tracking list
Your tracking list is empty




NASA's NSSDC Master Catalog

Two Line Element Set (TLE):
1 18351U 87078B   19291.52203372 -.00000261 +00000-0 +00000-0 0  9994
2 18351 015.3656 001.2567 0012844 335.9156 025.7861 00.98690917102740
Source of the keplerian elements: AFSPC